Date String (YYYY-MM-DD hh:mm:ss) UTC,Instrument flags,Ambient pressure (hPa),Sample flow (lpm),Bypass flow (lpm),Sample temperature (°C),Ambient temperature (°C),ASC tube jacket temperature (°C),LED temperature (°C),Box temperature (°C),Sample RH (%),Span deviation,Mass concentration (μg/m³),Mass concentration (μg/m³),Mass concentration (μg/m³)
DateTimeUTC,F1_M11,P_M11,Q1_M11,Q2_M11,T1_M11,T2_M11,T3_M11,T4_M11,T5_M11,U1_M11,ZSPAN_M11,X0_M11,X2_M11,X1_M11
2022-08-03 19:00:00,,0829.2,4.99,0.00,29.5,27.5,00.0,38.2,31.3,28.2,0001.2,0013.22,0008.42,0007.64
2022-08-03 19:01:00,,0829.2,5.00,0.00,29.5,27.2,00.0,38.2,31.3,27.6,0001.3,0013.75,0008.44,0007.67
2022-08-03 19:02:00,,0829.2,5.01,0.00,29.4,27.3,00.0,38.2,31.2,27.6,0001.3,0014.20,0008.46,0007.71
2022-08-03 19:03:00,,0829.1,5.00,0.00,29.4,27.4,00.0,38.2,31.2,27.4,0001.1,0014.30,0008.51,0007.74
2022-08-03 19:04:00,,0829.1,4.99,0.00,29.4,27.5,00.0,38.2,31.2,27.6,0001.3,0014.31,0008.55,0007.78
2022-08-03 19:05:00,,0829.0,5.00,0.00,29.4,27.7,00.0,38.2,31.3,27.9,0001.6,0014.05,0008.61,0007.80
2022-08-03 19:06:00,,0829.0,5.00,0.00,29.4,27.9,00.0,38.2,31.3,27.9,0001.8,0013.63,0008.61,0007.82
2022-08-03 19:07:00,,0829.0,4.99,0.00,29.4,28.1,00.0,38.2,31.4,27.2,0002.2,0013.70,0008.60,0007.83
2022-08-03 19:08:00,,0829.1,4.99,0.00,29.5,28.2,00.0,38.2,31.5,27.2,0002.4,0013.55,0008.62,0007.85
2022-08-03 19:09:00,,0829.0,5.00,0.00,29.5,28.4,00.0,38.2,31.5,27.1,0002.6,0013.34,0008.58,0007.85
2022-08-03 19:10:00,,0829.0,5.00,0.00,29.6,28.4,00.0,38.3,31.5,26.9,0002.8,0013.34,0008.56,0007.85
2022-08-03 19:11:00,,0828.9,4.99,0.00,29.5,27.9,00.0,38.2,31.4,27.2,0003.2,0012.98,0008.56,0007.85
2022-08-03 19:12:00,,0829.0,5.01,0.00,29.5,27.3,00.0,38.2,31.2,26.8,0003.2,0013.05,0008.59,0007.86
2022-08-03 19:13:00,,0828.9,5.00,0.00,29.4,27.1,00.0,38.2,31.2,27.1,0003.1,0012.83,0008.60,0007.87
2022-08-03 19:14:00,,0828.9,5.01,0.00,29.4,27.2,00.0,38.2,31.1,27.8,0002.9,0012.71,0008.60,0007.86
2022-08-03 19:15:00,,0828.9,5.01,0.00,29.3,27.4,00.0,38.2,31.2,27.9,0002.9,0012.86,0008.60,0007.86
2022-08-03 19:16:00,,0828.8,5.00,0.00,29.3,27.5,00.0,38.1,31.2,27.7,0002.8,0013.10,0008.61,0007.87
2022-08-03 19:17:00,,0828.8,5.00,0.00,29.4,27.7,00.0,38.2,31.3,28.0,0002.5,0013.12,0008.63,0007.88
2022-08-03 19:18:00,,0829.0,5.00,0.00,29.4,27.9,00.0,38.2,31.3,28.8,0002.4,0013.47,0008.65,0007.87
2022-08-03 19:19:00,,0828.9,4.99,0.00,29.4,28.1,00.0,38.2,31.4,28.5,0002.3,0013.58,0008.66,0007.86
2022-08-03 19:20:00,,0829.2,5.00,0.00,29.5,28.2,00.0,38.2,31.5,28.2,0002.7,0013.50,0008.63,0007.84
2022-08-03 19:21:00,,0829.3,5.00,0.00,29.5,28.4,00.0,38.2,31.5,28.1,0002.5,0013.52,0008.62,0007.84
2022-08-03 19:22:00,,0829.1,5.00,0.00,29.5,28.3,00.0,38.2,31.5,27.7,0002.1,0014.13,0008.62,0007.83
2022-08-03 19:23:00,,0828.7,5.00,0.00,29.5,27.7,00.0,38.2,31.3,27.8,0001.7,0014.05,0008.62,0007.84
2022-08-03 19:24:00,,0828.7,5.01,0.00,29.5,27.3,00.0,38.2,31.2,28.3,0002.0,0013.90,0008.62,0007.84
2022-08-03 19:25:00,,0828.7,5.00,0.00,29.4,27.2,00.0,38.2,31.2,28.0,0002.1,0013.97,0008.66,0007.84
2022-08-03 19:26:00,,0828.7,5.00,0.00,29.4,27.3,00.0,38.2,31.1,28.3,0001.7,0014.02,0008.68,0007.86
2022-08-03 19:27:00,,0828.8,5.00,0.00,29.4,27.5,00.0,38.1,31.2,27.8,0001.2,0014.03,0008.69,0007.88
2022-08-03 19:28:00,,0828.7,5.00,0.00,29.4,27.7,00.0,38.1,31.2,27.6,0001.3,0013.98,0008.72,0007.89
2022-08-03 19:29:00,,0828.7,5.00,0.00,29.4,27.9,00.0,38.2,31.3,27.9,0001.6,0013.67,0008.71,0007.91
2022-08-03 19:30:00,,0828.9,5.00,0.00,29.4,28.0,00.0,38.2,31.4,27.7,0001.3,0014.10,0008.79,0007.95
2022-08-03 19:31:00,,0828.8,4.99,0.00,29.5,28.2,00.0,38.2,31.4,27.6,0000.6,0014.58,0008.86,0008.00
2022-08-03 19:32:00,,0829.2,5.00,0.00,29.5,28.4,00.0,38.2,31.5,27.1,0000.8,0014.69,0008.89,0008.01
2022-08-03 19:33:00,,0828.9,5.01,0.00,29.6,28.5,00.0,38.2,31.6,27.4,0000.9,0014.08,0008.91,0008.03
2022-08-03 19:34:00,,0828.6,5.01,0.00,29.6,28.3,00.0,38.2,31.5,27.5,0001.1,0014.66,0008.93,0008.05
2022-08-03 19:35:00,,0828.9,4.99,0.00,29.5,27.6,00.0,38.2,31.4,27.6,0001.3,0016.27,0009.01,0008.09
2022-08-03 19:36:00,,0828.8,5.01,0.00,29.5,27.3,00.0,38.2,31.3,27.9,0001.4,0016.42,0008.99,0008.11
2022-08-03 19:37:00,,0828.9,4.99,0.00,29.5,27.3,00.0,38.2,31.2,28.3,0001.4,0016.54,0008.99,0008.12
2022-08-03 19:38:00,,0828.7,5.01,0.00,29.4,27.4,00.0,38.2,31.2,28.1,0001.3,0016.47,0008.98,0008.12
2022-08-03 19:39:00,,0828.6,4.99,0.00,29.4,27.6,00.0,38.2,31.2,28.1,0001.5,0016.52,0008.96,0008.13
2022-08-03 19:40:00,,0828.7,4.99,0.00,29.4,27.8,00.0,38.2,31.3,28.1,0001.1,0016.35,0008.94,0008.14
2022-08-03 19:41:00,,0828.9,5.01,0.00,29.4,28.0,00.0,38.2,31.3,28.3,0001.4,0016.76,0008.92,0008.14
2022-08-03 19:42:00,,0828.8,5.00,0.00,29.5,28.1,00.0,38.2,31.4,28.2,0001.5,0016.87,0008.94,0008.14
2022-08-03 19:43:00,,0829.1,5.00,0.00,29.5,28.3,00.0,38.2,31.5,28.0,0001.5,0016.98,0008.97,0008.16
2022-08-03 19:44:00,,0829.0,4.99,0.00,29.6,28.4,00.0,38.2,31.6,28.0,0001.7,0017.39,0009.00,0008.17
2022-08-03 19:45:00,,0829.1,5.00,0.00,29.6,28.0,00.0,38.2,31.4,28.0,0001.5,0016.79,0009.01,0008.16
2022-08-03 19:46:00,,0829.2,4.99,0.00,29.5,27.4,00.0,38.2,31.3,28.4,0000.9,0015.15,0009.02,0008.16
2022-08-03 19:47:00,,0829.2,5.01,0.00,29.5,27.2,00.0,38.2,31.3,28.4,0000.7,0015.16,0009.02,0008.17
2022-08-03 19:48:00,,0828.8,5.00,0.00,29.4,27.3,00.0,38.2,31.2,28.2,0001.0,0015.61,0009.04,0008.18
2022-08-03 19:49:00,,0828.8,4.99,0.00,29.4,27.4,00.0,38.2,31.1,28.2,0001.0,0015.94,0009.06,0008.19
2022-08-03 19:50:00,,0828.5,4.99,0.00,29.4,27.6,00.0,38.2,31.2,28.3,0001.1,0016.43,0009.06,0008.20
2022-08-03 19:51:00,,0828.5,5.00,0.00,29.4,27.8,00.0,38.2,31.3,28.4,0001.3,0016.53,0009.11,0008.21
2022-08-03 19:52:00,,0828.5,5.00,0.00,29.4,28.0,00.0,38.2,31.3,28.7,0001.3,0016.27,0009.14,0008.21
2022-08-03 19:53:00,,0828.5,4.99,0.00,29.4,28.1,00.0,38.2,31.4,28.5,0001.3,0015.68,0009.10,0008.20
2022-08-03 19:54:00,,0828.5,5.01,0.00,29.5,28.3,00.0,38.2,31.5,28.2,0001.2,0016.22,0009.06,0008.20
2022-08-03 19:55:00,,0828.4,5.00,0.00,29.5,28.4,00.0,38.2,31.5,28.3,0001.1,0015.91,0009.03,0008.20
2022-08-03 19:56:00,,0828.5,4.98,0.00,29.5,28.1,00.0,38.2,31.5,28.4,0001.2,0015.86,0009.02,0008.21
2022-08-03 19:57:00,,0828.4,4.99,0.00,29.5,27.4,00.0,38.2,31.3,28.5,0001.6,0015.69,0008.97,0008.21
2022-08-03 19:58:00,,0828.4,5.01,0.00,29.4,27.2,00.0,38.2,31.2,28.6,0001.8,0015.77,0008.98,0008.21
2022-08-03 19:59:00,,0828.4,4.99,0.00,29.4,27.2,00.0,38.2,31.2,28.8,0002.0,0015.29,0008.99,0008.20
